San Bernardino, CA

9:11 PM PDT on September 15, 2019 (GMT -0700)
San Bernardino International

Weather History for KSBD - August, 2019

Change the Weather History Date:

Monday, August 19, 2019

  Actual Average Record
Temperature  
Mean Temperature 79 °F -  
Max Temperature 95 °F 92 °F 100 °F (2018)
Min Temperature 63 °F 61 °F 60 °F (2011)
Cooling Degree Days 14    
Growing Degree Days 29 (Base 50)    
Moisture  
Dew Point 56 °F    
Average Humidity 57    
Maximum Humidity 80    
Minimum Humidity 19    
Precipitation  
Precipitation 0.00 in - - ()
Sea Level Pressure  
Sea Level Pressure 29.94 in    
Wind  
Wind Speed 3 mph ()    
Max Wind Speed 12 mph    
Max Gust Speed -    
Visibility 8.6 miles    
Events      
Averages and records for this station are not official NWS values.
T = Trace of Precipitation, MM = Missing Value Source: Averaged Metar Reports

Daily Weather History Graph

Daily Weather History Graph

Search for Another Location

Airport or City:

Astronomy

Aug. 19, 2019 Rise Set
Actual Time 6:13 AM PDT 7:31 PM PDT
Civil Twilight 5:46 AM PDT 7:57 PM PDT
Nautical Twilight 5:15 AM PDT 8:28 PM PDT
Astronomical Twilight 4:42 AM PDT 9:01 PM PDT
Moon 10:05 PM PDT (8/19) 9:49 AM PDT (8/19)
Length of Visible Light 14h 10m
Length of Day
13h 18m
Waning Gibbous, 84% of the Moon is Illuminated
Aug 19
Waning Gibbous
Aug 23
Last Quarter
Aug 30
New
Sep 5
First Quarter
Sep 13
Full

Hourly Weather History & Observations

Time (PDT) Temp. Heat Index Dew Point Humidity Pressure Visibility Wind Dir Wind Speed Gust Speed Precip Events Conditions
12:00 AM 69.3 °F - 57.6 °F 66% 29.93 in 10.0 mi West 5.8 mph - N/A   Clear
12:23 AM 68.9 °F - 57.6 °F 67% 29.93 in 10.0 mi WSW 3.5 mph - N/A   Clear
12:41 AM 68.9 °F - 57.4 °F 67% 29.93 in 10.0 mi Calm Calm - N/A   Clear
1:00 AM 68.9 °F - 57.6 °F 67% 29.93 in 10.0 mi WSW 3.5 mph - N/A   Clear
1:20 AM 68.4 °F - 57.4 °F 68% 29.93 in 10.0 mi West 3.5 mph - N/A   Clear
1:40 AM 67.6 °F - 57.6 °F 70% 29.93 in 10.0 mi WSW 3.5 mph - N/A   Clear
2:03 AM 67.8 °F - 57.7 °F 70% 29.93 in 10.0 mi Calm Calm - N/A   Clear
2:21 AM 67.3 °F - 57.6 °F 71% 29.93 in 10.0 mi Calm Calm - N/A   Clear
2:40 AM 67.5 °F - 57.6 °F 70% 29.93 in 10.0 mi Calm Calm - N/A   Clear
3:00 AM 67.1 °F - 56.1 °F 68% 29.93 in 10.0 mi Calm Calm - N/A   Clear
3:20 AM 66.6 °F - 55.8 °F 68% 29.94 in 10.0 mi Calm Calm - N/A   Clear
3:43 AM 66.4 °F - 57.0 °F 72% 29.94 in 10.0 mi WSW 3.5 mph - N/A   Clear
4:01 AM 65.7 °F - 56.7 °F 73% 29.94 in 10.0 mi WSW 3.5 mph - N/A   Clear
4:20 AM 65.3 °F - 57.2 °F 75% 29.95 in 10.0 mi West 3.5 mph - N/A   Clear
4:40 AM 64.4 °F - 57.0 °F 77% 29.96 in 10.0 mi West 5.8 mph - N/A   Clear
4:41 AM 64.2 °F - 57.0 °F 77% 29.96 in 10.0 mi WSW 5.8 mph - N/A   Clear
5:00 AM 63.7 °F - 56.7 °F 78% 29.96 in 10.0 mi WSW 4.6 mph - N/A   Clear
5:23 AM 64.0 °F - 57.6 °F 79% 29.96 in 10.0 mi WSW 3.5 mph - N/A   Clear
5:41 AM 63.7 °F - 57.4 °F 80% 29.97 in 10.0 mi Calm Calm - N/A   Clear
7:00 AM 64.4 °F - 57.2 °F 77% 29.98 in 6.0 mi Calm Calm - N/A   Haze
7:48 AM 66.2 °F - 59.0 °F 78% 29.98 in 6.0 mi Calm Calm - N/A   Haze
8:48 AM 69.8 °F - 59.0 °F 68% 29.99 in 4.0 mi Calm Calm - N/A   Haze
9:50 AM 73.4 °F - 57.2 °F 57% 29.99 in 4.0 mi Calm Calm - N/A   Haze
10:50 AM 73.4 °F - 57.2 °F 57% 29.99 in 4.0 mi Calm Calm - N/A   Haze
11:50 AM 84.2 °F 82.8 °F 53.6 °F 35% 29.97 in 5.0 mi West 5.8 mph - N/A   Haze
12:50 PM 89.6 °F 87.3 °F 53.6 °F 29% 29.95 in 5.0 mi West 6.9 mph - N/A   Haze
1:50 PM 93.2 °F - 48.2 °F 21% 29.94 in 7.0 mi West 6.9 mph - N/A   Clear
2:50 PM 95.0 °F - 46.4 °F 19% 29.92 in 7.0 mi WSW 9.2 mph - N/A   Clear
3:50 PM 95.0 °F - 48.2 °F 20% 29.90 in 7.0 mi WSW 10.4 mph - N/A   Clear
4:50 PM 95.0 °F - 48.2 °F 20% 29.88 in 7.0 mi West 6.9 mph - N/A   Clear
5:50 PM 93.2 °F - 50.0 °F 23% 29.88 in 7.0 mi West 9.2 mph - N/A   Clear
6:50 PM 86.0 °F - 50.0 °F 29% 29.88 in 7.0 mi SW 11.5 mph - N/A   Clear
7:50 PM 84.2 °F - 48.2 °F 29% 29.89 in 7.0 mi WSW 10.4 mph - N/A   Clear
8:50 PM 84.2 °F 83.0 °F 55.4 °F 37% 29.91 in 7.0 mi SW 5.8 mph - N/A   Clear
9:40 PM 76.8 °F - 56.7 °F 50% 29.93 in 10.0 mi WSW 5.8 mph - N/A   Clear
9:45 PM 76.8 °F - 57.2 °F 51% 29.93 in 10.0 mi WSW 5.8 mph - N/A   Clear
10:03 PM 75.6 °F - 57.4 °F 53% 29.94 in 10.0 mi West 4.6 mph - N/A   Clear
10:21 PM 74.5 °F - 57.6 °F 55% 29.94 in 10.0 mi West 5.8 mph - N/A   Clear
10:40 PM 74.3 °F - 57.9 °F 57% 29.94 in 10.0 mi West 4.6 mph - N/A   Clear
11:00 PM 74.7 °F - 58.1 °F 56% 29.94 in 10.0 mi Calm Calm - N/A   Clear
11:24 PM 74.1 °F - 57.9 °F 57% 29.94 in 10.0 mi West 3.5 mph - N/A   Clear
11:42 PM 73.4 °F - 58.1 °F 59% 29.94 in 10.0 mi WSW 3.5 mph - N/A   Clear